Galveston, TX

12:28 AM CST on December 13, 2017 (GMT -0600)
Scholes International At Galveston

Weather History for KGLS - November, 2011

Change the Weather History Date:

Saturday, November 19, 2011

  Actual Average Record
Temperature  
Mean Temperature 72 °F 64 °F  
Max Temperature 75 °F 70 °F 79 °F (1999)
Min Temperature 69 °F 57 °F 33 °F (1880)
Degree Days  
Heating Degree Days 0 4  
Month to date heating degree days 23 40  
Since 1 July heating degree days 32 49  
Cooling Degree Days 7 3  
Month to date cooling degree days 104 77  
Year to date cooling degree days 3861 3269  
Growing Degree Days 22 (Base 50)    
Moisture  
Dew Point 68 °F    
Average Humidity 86    
Maximum Humidity 93    
Minimum Humidity 78    
Precipitation  
Precipitation 0.00 in 0.14 in 2.53 in (1877)
Month to date precipitation 1.35 2.92  
Year to date precipitation 17.53 45.65  
Snow  
Snow 0.00 in - 0.00 in (2002)
Month to date snowfall 0.0  
Since 1 July snowfall 0.0  
Since 1 September snowfall 0.0  
Snow Depth 0.00 in    
Sea Level Pressure  
Sea Level Pressure 30.01 in    
Wind  
Wind Speed 14 mph (SE)    
Max Wind Speed 21 mph    
Max Gust Speed 25 mph    
Visibility 10 miles    
Events      
T = Trace of Precipitation, MM = Missing Value Source: NWS Daily Summary

Daily Weather History Graph

Daily Weather History Graph

Search for Another Location

Airport or City:

Trip Planner

Search our weather history database for the weather conditions in past years. The results will help you decide how hot, cold, wet, or windy it might be!

Date:

Astronomy

Nov. 19, 2011 Rise Set
Actual Time 6:46 AM CST 5:23 PM CST
Civil Twilight 6:20 AM CST 5:48 PM CST
Nautical Twilight 5:52 AM CST 6:17 PM CST
Astronomical Twilight 5:23 AM CST 6:45 PM CST
Moon 12:36 AM CST (11/19) 1:15 PM CST (11/19)
Length of Visible Light 11h 27m
Length of Day
10h 36m
Last Quarter, 38% of the Moon is Illuminated
Nov 19
Last Quarter
Nov 25
New
Dec 2
First Quarter
Dec 10
Full
Dec 17
Last Quarter

Hourly Weather History & Observations

Time (CST) Temp. Dew Point Humidity Pressure Visibility Wind Dir Wind Speed Gust Speed Precip Events Conditions
12:52 AM 69.1 °F 63.0 °F 81% 30.04 in 10.0 mi SSE 10.4 mph - N/A   Overcast
1:52 AM 70.0 °F 64.0 °F 81% 30.03 in 10.0 mi SSE 11.5 mph - N/A   Mostly Cloudy
2:52 AM 69.1 °F 64.9 °F 87% 30.01 in 10.0 mi SSE 10.4 mph - N/A   Scattered Clouds
3:52 AM 70.0 °F 64.9 °F 84% 30.00 in 10.0 mi SSE 10.4 mph - N/A   Overcast
4:52 AM 69.8 °F 66.2 °F 88% 29.99 in 10.0 mi SE 11.5 mph - N/A   Overcast
5:52 AM 70.0 °F 66.0 °F 87% 30.01 in 10.0 mi SE 9.2 mph - N/A   Overcast
6:52 AM 70.0 °F 66.0 °F 87% 30.01 in 10.0 mi SE 8.1 mph - N/A   Overcast
7:52 AM 71.1 °F 66.9 °F 87% 30.04 in 10.0 mi SE 10.4 mph - N/A   Overcast
8:52 AM 73.0 °F 68.0 °F 84% 30.05 in 10.0 mi SE 10.4 mph - N/A   Overcast
9:52 AM 73.0 °F 68.0 °F 84% 30.05 in 10.0 mi SE 12.7 mph - N/A   Overcast
10:52 AM 73.9 °F 69.1 °F 85% 30.05 in 10.0 mi SE 11.5 mph - N/A   Overcast
11:52 AM 75.0 °F 69.1 °F 82% 30.03 in 10.0 mi SE 12.7 mph - N/A   Overcast
12:52 PM 75.0 °F 70.0 °F 84% 30.00 in 10.0 mi SE 16.1 mph - N/A   Overcast
1:52 PM 75.0 °F 70.0 °F 84% 29.98 in 10.0 mi SE 18.4 mph - N/A   Overcast
2:52 PM 73.4 °F 69.8 °F 88% 29.97 in 10.0 mi SE 16.1 mph - N/A   Overcast
3:52 PM 73.0 °F 69.1 °F 87% 29.97 in 10.0 mi SE 16.1 mph - N/A   Overcast
4:52 PM 73.0 °F 70.0 °F 90% 29.97 in 10.0 mi SE 17.3 mph - N/A   Overcast
5:52 PM 73.0 °F 70.0 °F 90% 29.97 in 10.0 mi SE 19.6 mph - N/A   Overcast
6:52 PM 73.0 °F 70.0 °F 90% 29.99 in 10.0 mi SE 13.8 mph - N/A   Overcast
7:52 PM 73.0 °F 71.1 °F 93% 30.02 in 10.0 mi SE 15.0 mph - N/A   Overcast
8:52 PM 73.0 °F 71.1 °F 93% 30.03 in 10.0 mi SE 18.4 mph - N/A   Overcast
9:52 PM 73.0 °F 71.1 °F 93% 30.03 in 10.0 mi SE 18.4 mph - N/A   Overcast
10:52 PM 73.0 °F 71.1 °F 93% 30.04 in 10.0 mi SE 13.8 mph - N/A   Overcast
11:52 PM 73.0 °F 71.1 °F 93% 30.04 in 9.0 mi SE 13.8 mph - N/A   Overcast